Time,TemperatureF,DewpointF,PressureIn,WindDirection,WindDirectionDegrees,WindSpeedMPH,WindSpeedGustMPH,Humidity,HourlyPrecipIn,Conditions,Clouds,dailyrainin,SoftwareType,DateUTC
2013-03-05 00:02:00,7.0,4.0,30.25,ENE,71,0.0,-999.0,87,-99.99,,,-99.99,,2013-03-05 05:02:00,
2013-03-05 00:11:00,7.0,4.0,30.25,ENE,71,0.0,-999.0,87,-99.99,,,-99.99,,2013-03-05 05:11:00,
2013-03-05 00:22:00,6.0,3.0,30.25,ENE,71,0.0,-999.0,87,-99.99,,,-99.99,,2013-03-05 05:22:00,
2013-03-05 00:32:00,6.0,3.0,30.24,ENE,71,0.0,-999.0,87,-99.99,,,-99.99,,2013-03-05 05:32:00,
2013-03-05 00:42:00,6.0,3.0,30.24,ENE,71,0.0,-999.0,87,-99.99,,,-99.99,,2013-03-05 05:42:00,
2013-03-05 00:52:00,5.0,2.0,30.24,ENE,71,0.0,-999.0,86,-99.99,,,-99.99,,2013-03-05 05:52:00,
2013-03-05 01:01:00,5.0,2.0,30.25,ENE,71,0.0,-999.0,87,-99.99,,,-99.99,,2013-03-05 06:01:00,
2013-03-05 01:11:00,5.0,2.0,30.25,ENE,71,0.0,-999.0,87,-99.99,,,-99.99,,2013-03-05 06:11:00,
2013-03-05 01:22:00,5.0,2.0,30.25,ENE,71,0.0,-999.0,87,-99.99,,,-99.99,,2013-03-05 06:22:00,
2013-03-05 01:32:00,4.0,1.0,30.25,ENE,71,0.0,-999.0,86,-99.99,,,-99.99,,2013-03-05 06:32:00,
2013-03-05 01:42:00,4.0,1.0,30.25,ENE,71,0.0,-999.0,86,-99.99,,,-99.99,,2013-03-05 06:42:00,
2013-03-05 01:52:00,4.0,1.0,30.25,ENE,71,0.0,-999.0,87,-99.99,,,-99.99,,2013-03-05 06:52:00,
2013-03-05 02:01:00,3.0,0.0,30.26,ENE,71,0.0,-999.0,86,-99.99,,,-99.99,,2013-03-05 07:01:00,
2013-03-05 02:11:00,3.0,0.0,30.26,ENE,71,0.0,-999.0,86,-99.99,,,-99.99,,2013-03-05 07:11:00,
2013-03-05 02:22:00,3.0,0.0,30.26,ENE,71,0.0,-999.0,86,-99.99,,,-99.99,,2013-03-05 07:22:00,
2013-03-05 02:31:00,3.0,0.0,30.24,ENE,71,0.0,-999.0,88,-99.99,,,-99.99,,2013-03-05 07:31:00,
2013-03-05 02:41:00,3.0,0.0,30.24,ENE,71,0.0,-999.0,88,-99.99,,,-99.99,,2013-03-05 07:41:00,
2013-03-05 02:51:00,4.0,1.0,30.25,ENE,71,0.0,-999.0,87,-99.99,,,-99.99,,2013-03-05 07:51:00,
2013-03-05 03:02:00,3.0,0.0,30.25,ENE,71,0.0,-999.0,87,-99.99,,,-99.99,,2013-03-05 08:02:00,
2013-03-05 03:11:00,3.0,0.0,30.25,ENE,71,0.0,-999.0,87,-99.99,,,-99.99,,2013-03-05 08:11:00,
2013-03-05 03:21:00,3.0,0.0,30.24,ENE,71,0.0,-999.0,87,-99.99,,,-99.99,,2013-03-05 08:21:00,
2013-03-05 03:31:00,3.0,0.0,30.24,ENE,71,0.0,-999.0,87,-99.99,,,-99.99,,2013-03-05 08:31:00,
2013-03-05 03:41:00,3.0,0.0,30.24,ENE,71,0.0,-999.0,87,-99.99,,,-99.99,,2013-03-05 08:41:00,
2013-03-05 03:52:00,3.0,0.0,30.23,ENE,71,0.0,-999.0,87,-99.99,,,-99.99,,2013-03-05 08:52:00,
2013-03-05 04:01:00,4.0,1.0,30.24,ENE,72,0.0,-999.0,88,-99.99,,,-99.99,,2013-03-05 09:01:00,
2013-03-05 04:11:00,4.0,1.0,30.24,ENE,72,0.0,-999.0,88,-99.99,,,-99.99,,2013-03-05 09:11:00,
2013-03-05 04:21:00,4.0,2.0,30.24,ENE,71,0.0,-999.0,89,-99.99,,,-99.99,,2013-03-05 09:21:00,
2013-03-05 04:31:00,5.0,2.0,30.24,ENE,71,0.0,-999.0,89,-99.99,,,-99.99,,2013-03-05 09:31:00,
2013-03-05 04:42:00,5.0,2.0,30.24,ENE,71,0.0,-999.0,89,-99.99,,,-99.99,,2013-03-05 09:42:00,
2013-03-05 04:52:00,6.0,3.0,30.24,ENE,72,0.0,-999.0,88,-99.99,,,-99.99,,2013-03-05 09:52:00,
2013-03-05 05:01:00,6.0,3.0,30.24,ENE,71,0.0,-999.0,88,-99.99,,,-99.99,,2013-03-05 10:01:00,
2013-03-05 05:11:00,6.0,3.0,30.24,ENE,71,0.0,-999.0,88,-99.99,,,-99.99,,2013-03-05 10:11:00,
2013-03-05 05:21:00,7.0,4.0,30.24,ENE,71,0.0,-999.0,89,-99.99,,,-99.99,,2013-03-05 10:21:00,
2013-03-05 05:32:00,7.0,7.0,30.24,ENE,71,0.0,-999.0,100,-99.99,,,-99.99,,2013-03-05 10:32:00,
2013-03-05 05:42:00,7.0,7.0,30.24,ENE,71,0.0,-999.0,100,-99.99,,,-99.99,,2013-03-05 10:42:00,
2013-03-05 05:52:00,9.0,7.0,30.23,ENE,72,0.0,-999.0,91,-99.99,,,-99.99,,2013-03-05 10:52:00,
2013-03-05 06:01:00,9.0,7.0,30.23,ENE,72,0.0,-999.0,91,-99.99,,,-99.99,,2013-03-05 11:01:00,
2013-03-05 06:11:00,9.0,7.0,30.23,ENE,72,0.0,-999.0,91,-99.99,,,-99.99,,2013-03-05 11:11:00,
2013-03-05 06:22:00,10.0,8.0,30.22,ENE,71,0.0,-999.0,91,-99.99,,,-99.99,,2013-03-05 11:22:00,
2013-03-05 06:32:00,11.0,9.0,30.22,ENE,71,0.0,-999.0,91,-99.99,,,-99.99,,2013-03-05 11:32:00,
2013-03-05 06:42:00,11.0,9.0,30.22,ENE,71,0.0,-999.0,91,-99.99,,,-99.99,,2013-03-05 11:42:00,
2013-03-05 06:52:00,12.0,10.0,30.22,ENE,71,0.0,-999.0,91,-99.99,,,-99.99,,2013-03-05 11:52:00,
2013-03-05 07:02:00,12.0,10.0,30.22,ENE,71,0.0,-999.0,90,-99.99,,,-99.99,,2013-03-05 12:02:00,
2013-03-05 07:12:00,12.0,10.0,30.22,ENE,71,0.0,-999.0,90,-99.99,,,-99.99,,2013-03-05 12:12:00,
2013-03-05 07:22:00,13.0,11.0,30.22,ENE,71,0.0,-999.0,91,-99.99,,,-99.99,,2013-03-05 12:22:00,
2013-03-05 07:32:00,14.0,11.0,30.21,ENE,71,0.0,-999.0,89,-99.99,,,-99.99,,2013-03-05 12:32:00,
2013-03-05 07:42:00,14.0,11.0,30.21,ENE,71,0.0,-999.0,89,-99.99,,,-99.99,,2013-03-05 12:42:00,
2013-03-05 07:52:00,14.0,11.0,30.21,ENE,71,0.0,-999.0,87,-99.99,,,-99.99,,2013-03-05 12:52:00,
2013-03-05 08:02:00,14.0,10.0,30.22,ENE,71,1.0,-999.0,85,-99.99,,,-99.99,,2013-03-05 13:02:00,
2013-03-05 08:11:00,14.0,10.0,30.22,ENE,71,1.0,-999.0,85,-99.99,,,-99.99,,2013-03-05 13:11:00,
2013-03-05 08:21:00,15.0,11.0,30.22,ENE,71,0.0,-999.0,84,-99.99,,,-99.99,,2013-03-05 13:21:00,
2013-03-05 08:32:00,15.0,11.0,30.21,ENE,72,0.0,-999.0,84,-99.99,,,-99.99,,2013-03-05 13:32:00,
2013-03-05 08:42:00,15.0,11.0,30.21,ENE,72,0.0,-999.0,84,-99.99,,,-99.99,,2013-03-05 13:42:00,
2013-03-05 08:52:00,16.0,11.0,30.21,ENE,71,0.0,-999.0,81,-99.99,,,-99.99,,2013-03-05 13:52:00,
2013-03-05 09:02:00,17.0,12.0,30.20,ENE,58,1.0,-999.0,80,-99.99,,,-99.99,,2013-03-05 14:02:00,
2013-03-05 09:11:00,17.0,12.0,30.20,ENE,58,1.0,-999.0,80,-99.99,,,-99.99,,2013-03-05 14:11:00,
2013-03-05 09:21:00,18.0,13.0,30.20,NE,40,1.0,-999.0,80,-99.99,,,-99.99,,2013-03-05 14:21:00,
2013-03-05 09:32:00,19.0,14.0,30.20,NE,53,2.0,-999.0,79,-99.99,,,-99.99,,2013-03-05 14:32:00,
2013-03-05 09:42:00,19.0,14.0,30.20,NE,53,2.0,-999.0,79,-99.99,,,-99.99,,2013-03-05 14:42:00,
2013-03-05 09:52:00,19.0,13.0,30.19,ENE,61,3.0,-999.0,78,-99.99,,,-99.99,,2013-03-05 14:52:00,
2013-03-05 10:01:00,20.0,15.0,30.19,ENE,63,2.0,-999.0,79,-99.99,,,-99.99,,2013-03-05 15:01:00,
2013-03-05 10:11:00,20.0,15.0,30.19,ENE,63,2.0,-999.0,79,-99.99,,,-99.99,,2013-03-05 15:11:00,
2013-03-05 10:21:00,21.0,16.0,30.19,NE,45,3.0,-999.0,80,-99.99,,,-99.99,,2013-03-05 15:21:00,
2013-03-05 10:32:00,22.0,18.0,30.19,ENE,70,4.0,-999.0,83,-99.99,,,-99.99,,2013-03-05 15:32:00,
2013-03-05 10:42:00,22.0,18.0,30.19,ENE,70,4.0,-999.0,83,-99.99,,,-99.99,,2013-03-05 15:42:00,
2013-03-05 10:51:00,22.0,18.0,30.18,ENE,60,6.0,-999.0,83,-99.99,,,-99.99,,2013-03-05 15:51:00,
2013-03-05 11:01:00,22.0,18.0,30.19,ENE,72,5.0,-999.0,85,-99.99,,,-99.99,,2013-03-05 16:01:00,
2013-03-05 11:11:00,22.0,18.0,30.19,ENE,72,5.0,-999.0,85,-99.99,,,-99.99,,2013-03-05 16:11:00,
2013-03-05 11:21:00,22.0,18.0,30.19,ENE,72,5.0,-999.0,85,-99.99,,,-99.99,,2013-03-05 16:21:00,
2013-03-05 11:32:00,22.0,18.0,30.19,SE,130,6.0,-999.0,86,-99.99,,,-99.99,,2013-03-05 16:32:00,
2013-03-05 11:42:00,22.0,18.0,30.19,SE,130,6.0,-999.0,86,-99.99,,,-99.99,,2013-03-05 16:42:00,
2013-03-05 11:52:00,22.0,19.0,30.19,East,98,5.0,-999.0,87,-99.99,,,-99.99,,2013-03-05 16:52:00,
2013-03-05 12:01:00,23.0,20.0,30.19,ENE,57,4.0,-999.0,87,-99.99,,,-99.99,,2013-03-05 17:01:00,
2013-03-05 12:11:00,23.0,20.0,30.19,ENE,57,4.0,-999.0,87,-99.99,,,-99.99,,2013-03-05 17:11:00,
2013-03-05 12:21:00,23.0,19.0,30.19,East,95,4.0,-999.0,85,-99.99,,,-99.99,,2013-03-05 17:21:00,
2013-03-05 12:32:00,23.0,19.0,30.19,NE,39,5.0,-999.0,84,-99.99,,,-99.99,,2013-03-05 17:32:00,
2013-03-05 12:42:00,23.0,19.0,30.19,NE,39,5.0,-999.0,84,-99.99,,,-99.99,,2013-03-05 17:42:00,
2013-03-05 12:52:00,23.0,19.0,30.19,NNE,32,4.0,-999.0,84,-99.99,,,-99.99,,2013-03-05 17:52:00,
2013-03-05 13:02:00,23.0,19.0,30.19,ENE,63,4.0,-999.0,85,-99.99,,,-99.99,,2013-03-05 18:02:00,
2013-03-05 13:11:00,23.0,19.0,30.19,ENE,63,4.0,-999.0,85,-99.99,,,-99.99,,2013-03-05 18:11:00,
2013-03-05 13:21:00,24.0,20.0,30.19,NNE,26,3.0,-999.0,84,-99.99,,,-99.99,,2013-03-05 18:21:00,
2013-03-05 13:32:00,23.0,19.0,30.18,NE,49,6.0,-999.0,86,-99.99,,,-99.99,,2013-03-05 18:32:00,
2013-03-05 13:42:00,23.0,19.0,30.18,NE,49,6.0,-999.0,86,-99.99,,,-99.99,,2013-03-05 18:42:00,
2013-03-05 13:52:00,24.0,20.0,30.18,NNE,24,5.0,-999.0,85,-99.99,,,-99.99,,2013-03-05 18:52:00,
2013-03-05 14:01:00,24.0,20.0,30.18,NE,46,6.0,-999.0,84,-99.99,,,-99.99,,2013-03-05 19:01:00,
2013-03-05 14:11:00,24.0,20.0,30.18,NE,46,6.0,-999.0,84,-99.99,,,-99.99,,2013-03-05 19:11:00,
2013-03-05 14:21:00,24.0,20.0,30.17,ENE,59,7.0,-999.0,84,-99.99,,,-99.99,,2013-03-05 19:21:00,
2013-03-05 14:32:00,24.0,20.0,30.17,North,9,7.0,-999.0,84,-99.99,,,-99.99,,2013-03-05 19:32:00,
2013-03-05 14:42:00,24.0,20.0,30.17,North,9,7.0,-999.0,84,-99.99,,,-99.99,,2013-03-05 19:42:00,
2013-03-05 14:51:00,24.0,20.0,30.18,ENE,62,7.0,-999.0,84,-99.99,,,-99.99,,2013-03-05 19:51:00,
2013-03-05 15:01:00,24.0,20.0,30.17,NE,44,6.0,-999.0,84,-99.99,,,-99.99,,2013-03-05 20:01:00,
2013-03-05 15:11:00,24.0,20.0,30.17,North,9,6.0,-999.0,85,-99.99,,,-99.99,,2013-03-05 20:11:00,
2013-03-05 15:21:00,24.0,20.0,30.17,North,9,6.0,-999.0,85,-99.99,,,-99.99,,2013-03-05 20:21:00,
2013-03-05 15:32:00,24.0,20.0,30.17,NNE,32,7.0,-999.0,85,-99.99,,,-99.99,,2013-03-05 20:32:00,
2013-03-05 15:41:00,24.0,20.0,30.17,NNE,32,7.0,-999.0,85,-99.99,,,-99.99,,2013-03-05 20:41:00,
2013-03-05 15:52:00,24.0,20.0,30.17,North,360,6.0,-999.0,84,-99.99,,,-99.99,,2013-03-05 20:52:00,
2013-03-05 16:02:00,24.0,20.0,30.17,North,5,6.0,-999.0,85,-99.99,,,-99.99,,2013-03-05 21:02:00,
2013-03-05 16:11:00,24.0,20.0,30.17,North,5,6.0,-999.0,85,-99.99,,,-99.99,,2013-03-05 21:11:00,
2013-03-05 16:21:00,24.0,20.0,30.17,NE,51,7.0,-999.0,86,-99.99,,,-99.99,,2013-03-05 21:21:00,
2013-03-05 16:32:00,24.0,21.0,30.17,NE,53,8.0,-999.0,87,-99.99,,,-99.99,,2013-03-05 21:32:00,
2013-03-05 16:42:00,24.0,21.0,30.17,NE,53,8.0,-999.0,87,-99.99,,,-99.99,,2013-03-05 21:42:00,
2013-03-05 16:52:00,23.0,20.0,30.17,NE,39,7.0,-999.0,89,-99.99,,,-99.99,,2013-03-05 21:52:00,
2013-03-05 17:01:00,23.0,20.0,30.17,North,360,8.0,-999.0,89,-99.99,,,-99.99,,2013-03-05 22:01:00,
2013-03-05 17:11:00,23.0,20.0,30.17,North,360,8.0,-999.0,89,-99.99,,,-99.99,,2013-03-05 22:11:00,
2013-03-05 17:21:00,23.0,21.0,30.18,North,9,7.0,-999.0,91,-99.99,,,-99.99,,2013-03-05 22:21:00,
2013-03-05 17:32:00,23.0,21.0,30.17,NE,46,6.0,-999.0,91,-99.99,,,-99.99,,2013-03-05 22:32:00,
2013-03-05 17:41:00,23.0,21.0,30.17,NE,46,6.0,-999.0,91,-99.99,,,-99.99,,2013-03-05 22:41:00,
2013-03-05 17:52:00,23.0,20.0,30.18,North,360,7.0,-999.0,89,-99.99,,,-99.99,,2013-03-05 22:52:00,
2013-03-05 18:01:00,23.0,20.0,30.19,NNE,29,6.0,-999.0,89,-99.99,,,-99.99,,2013-03-05 23:01:00,
2013-03-05 18:11:00,23.0,20.0,30.19,NNE,29,6.0,-999.0,89,-99.99,,,-99.99,,2013-03-05 23:11:00,
2013-03-05 18:21:00,23.0,20.0,30.19,NW,322,6.0,-999.0,89,-99.99,,,-99.99,,2013-03-05 23:21:00,
2013-03-05 18:32:00,23.0,21.0,30.19,North,350,9.0,-999.0,90,-99.99,,,-99.99,,2013-03-05 23:32:00,
2013-03-05 18:42:00,23.0,21.0,30.19,North,350,9.0,-999.0,90,-99.99,,,-99.99,,2013-03-05 23:42:00,
2013-03-05 18:52:00,23.0,21.0,30.19,NNE,13,9.0,-999.0,90,-99.99,,,-99.99,,2013-03-05 23:52:00,
2013-03-05 19:01:00,23.0,21.0,30.20,North,10,7.0,-999.0,90,-99.99,,,-99.99,,2013-03-06 00:01:00,
2013-03-05 19:11:00,23.0,21.0,30.20,North,10,7.0,-999.0,90,-99.99,,,-99.99,,2013-03-06 00:11:00,
2013-03-05 19:21:00,23.0,21.0,30.20,NNE,19,6.0,-999.0,90,-99.99,,,-99.99,,2013-03-06 00:21:00,
2013-03-05 19:32:00,22.0,20.0,30.21,North,355,7.0,-999.0,90,-99.99,,,-99.99,,2013-03-06 00:32:00,
2013-03-05 19:41:00,22.0,20.0,30.21,North,355,7.0,-999.0,90,-99.99,,,-99.99,,2013-03-06 00:41:00,
2013-03-05 19:51:00,22.0,20.0,30.20,NNE,12,6.0,-999.0,90,-99.99,,,-99.99,,2013-03-06 00:51:00,
2013-03-05 20:02:00,23.0,21.0,30.21,NE,34,6.0,-999.0,90,-99.99,,,-99.99,,2013-03-06 01:02:00,
2013-03-05 20:11:00,23.0,21.0,30.21,NE,34,6.0,-999.0,90,-99.99,,,-99.99,,2013-03-06 01:11:00,
2013-03-05 20:21:00,23.0,20.0,30.21,North,355,6.0,-999.0,89,-99.99,,,-99.99,,2013-03-06 01:21:00,
2013-03-05 20:32:00,23.0,20.0,30.20,North,5,5.0,-999.0,89,-99.99,,,-99.99,,2013-03-06 01:32:00,
2013-03-05 20:42:00,23.0,20.0,30.20,North,5,5.0,-999.0,89,-99.99,,,-99.99,,2013-03-06 01:42:00,
2013-03-05 20:51:00,23.0,20.0,30.20,NNW,345,5.0,-999.0,89,-99.99,,,-99.99,,2013-03-06 01:51:00,
2013-03-05 21:01:00,23.0,20.0,30.20,North,349,4.0,-999.0,89,-99.99,,,-99.99,,2013-03-06 02:01:00,
2013-03-05 21:11:00,23.0,20.0,30.20,North,349,4.0,-999.0,89,-99.99,,,-99.99,,2013-03-06 02:11:00,
2013-03-05 21:22:00,23.0,20.0,30.20,North,9,5.0,-999.0,89,-99.99,,,-99.99,,2013-03-06 02:22:00,
2013-03-05 21:32:00,23.0,20.0,30.21,NNE,15,4.0,-999.0,89,-99.99,,,-99.99,,2013-03-06 02:32:00,
2013-03-05 21:42:00,23.0,20.0,30.21,NNE,15,4.0,-999.0,89,-99.99,,,-99.99,,2013-03-06 02:42:00,
2013-03-05 21:52:00,24.0,21.0,30.21,North,355,4.0,-999.0,89,-99.99,,,-99.99,,2013-03-06 02:52:00,
2013-03-05 22:01:00,24.0,21.0,30.21,North,11,4.0,-999.0,89,-99.99,,,-99.99,,2013-03-06 03:01:00,
2013-03-05 22:11:00,24.0,21.0,30.21,North,11,4.0,-999.0,89,-99.99,,,-99.99,,2013-03-06 03:11:00,
2013-03-05 22:22:00,24.0,22.0,30.21,NNE,13,2.0,-999.0,90,-99.99,,,-99.99,,2013-03-06 03:22:00,
2013-03-05 22:32:00,24.0,21.0,30.22,North,355,3.0,-999.0,89,-99.99,,,-99.99,,2013-03-06 03:32:00,
2013-03-05 22:42:00,24.0,21.0,30.22,North,355,3.0,-999.0,89,-99.99,,,-99.99,,2013-03-06 03:42:00,
2013-03-05 22:52:00,24.0,21.0,30.22,North,10,3.0,-999.0,89,-99.99,,,-99.99,,2013-03-06 03:52:00,
2013-03-05 23:02:00,25.0,22.0,30.22,North,355,3.0,-999.0,88,-99.99,,,-99.99,,2013-03-06 04:02:00,
2013-03-05 23:11:00,25.0,22.0,30.22,North,355,3.0,-999.0,88,-99.99,,,-99.99,,2013-03-06 04:11:00,
2013-03-05 23:21:00,25.0,22.0,30.22,North,9,2.0,-999.0,88,-99.99,,,-99.99,,2013-03-06 04:21:00,
2013-03-05 23:32:00,25.0,22.0,30.22,North,9,3.0,-999.0,89,-99.99,,,-99.99,,2013-03-06 04:32:00,
2013-03-05 23:41:00,25.0,22.0,30.22,North,9,3.0,-999.0,89,-99.99,,,-99.99,,2013-03-06 04:41:00,
2013-03-05 23:52:00,25.0,22.0,30.21,NNE,17,3.0,-999.0,90,-99.99,,,-99.99,,2013-03-06 04:52:00,